Temperature
30 31 31 31 31 32 31 31 31 31 31 30 29 29 29 29 28 27 26 25 25 24 24 24 24 23 23 23 22 22 21 21 20 20 20 20 20 20 19 19 19 19 19 19
28 30 31 30 31 32 31 31 31 31 30 30 29 28 28 28 27 26 25 24 24 23 23 23 23 23 22 22 22 21 21 21 20 20 20 20 19 19 19 19 19 19 19 18
27 29 29 29 31 31 31 31 31 30 29 29 28 26 26 26 25 25 24 23 23 22 22 22 22 22 22 21 21 21 21 20 20 20 19 19 19 19 19 19 19 18 18 18
27 27 26 29 31 30 30 30 30 29 29 28 27 26 25 25 24 24 23 22 22 22 21 21 21 21 21 21 21 20 20 20 20 19 19 19 19 19 19 19 18 18 18 18
26 26 27 28 28 28 27 27 28 28 28 27 26 25 24 23 23 22 22 21 21 21 21 21 21 21 21 20 20 20 20 19 19 19 19 19 19 19 18 18 18 18 18 18
25 25 25 26 27 27 27 25 25 26 25 25 25 25 24 22 21 21 21 21 20 20 20 20 20 20 20 20 20 19 19 19 19 19 19 18 18 18 18 18 18 18 18 18
25 25 25 26 26 26 24 23 23 23 23 24 24 23 22 21 21 20 20 20 19 19 19 19 19 19 19 19 19 19 19 19 18 18 18 18 18 18 18 17 17 17 17 17
24 24 23 24 24 23 22 21 21 22 22 22 22 21 21 20 20 19 19 19 19 18 18 18 18 18 18 18 18 18 18 18 18 18 18 18 18 18 17 17 17 17 17 17
23 23 22 22 22 21 21 21 21 21 21 21 21 20 20 19 19 19 18 18 18 18 18 18 18 18 18 18 18 17 17 17 17 17 17 17 17 17 17 17 16 16 16 16
22 23 23 22 22 21 20 20 20 20 20 20 20 19 19 19 18 18 18 17 17 17 17 17 17 17 17 17 17 17 17 17 17 17 17 17 17 17 17 16 16 16 16 16
22 21 21 21 21 20 20 20 19 20 19 19 19 18 18 18 17 17 17 17 17 17 17 17 16 16 16 16 16 16 16 16 16 16 16 16 16 16 16 16 16 16 16 15
20 20 20 20 20 19 19 19 19 19 18 18 18 17 17 17 17 17 16 16 16 16 16 16 16 16 15 16 16 15 15 15 16 16 16 16 16 16 16 16 15 15 15 15
19 19 18 19 19 19 19 18 18 18 18 17 17 17 17 16 16 16 16 16 16 15 15 15 15 15 15 15 15 15 15 15 15 15 15 15 15 15 15 15 15 15 15 15
18 17 17 17 18 17 17 17 17 17 17 17 16 16 16 16 16 15 15 15 15 15 14 14 14 14 14 14 14 14 14 14 14 14 15 15 15 15 15 15 14 14 14 14
17 17 16 16 16 17 16 16 16 16 16 16 16 16 15 15 15 15 15 14 14 14 14 13 13 13 13 13 13 14 14 14 14 14 14 14 14 14 14 14 13 13 13 13
16 16 16 16 16 16 16 16 16 16 16 15 15 15 15 15 14 14 14 14 13 13 13 13 13 12 13 13 13 13 13 13 13 13 13 13 13 13 13 13 13 13 12 12
16 15 15 15 15 15 15 15 15 15 15 15 15 14 14 14 13 13 13 13 12 12 12 12 12 12 12 12 12 12 12 12 12 13 13 13 13 13 12 12 12 12 12 12
15 15 15 15 15 15 15 14 14 14 14 14 14 14 13 13 12 12 12 12 12 12 11 11 11 11 11 11 11 11 11 11 12 12 12 12 12 12 12 12 12 11 11 11
15 15 15 14 14 14 14 14 14 13 13 13 13 12 12 12 12 11 11 11 11 11 11 11 11 11 11 11 11 11 11 11 11 11 11 11 11 11 11 11 11 11 11 11
14 14 14 14 13 13 13 13 13 13 12 12 12 12 11 11 11 11 11 10 10 10 10 10 10 10 10 11 11 11 11 11 11 11 11 11 11 11 11 11 11 10 10 10
14 13 13 13 13 13 12 12 12 12 11 11 11 11 11 10 10 10 10 10 9 10 10 10 10 10 10 10 10 11 11 10 10 10 11 10 10 10 10 10 10 10 9 9
13 13 12 12 12 12 12 11 11 11 11 11 11 11 10 10 10 10 9 9 9 9 9 9 9 9 10 10 10 10 10 10 10 10 10 10 10 10 10 9 9 9 9 9
12 12 12 12 11 11 11 11 11 10 10 10 10 10 10 10 10 9 9 9 9 9 9 9 9 9 9 10 10 10 10 10 10 10 9 9 9 9 9 9 9 9 8 8
11 11 11 11 11 11 10 10 10 10 10 10 10 10 10 10 10 9 9 9 9 9 9 9 9 9 9 9 9 9 9 9 9 9 9 9 9 9 9 8 8 8 8 8
11 11 11 10 10 10 10 10 10 10 10 10 10 10 10 10 10 9 9 9 9 9 9 9 9 9 9 9 9 9 8 8 8 8 8 8 8 8 8 8 8 8 8 7
11 11 10 10 10 10 10 10 10 10 10 10 10 10 10 10 10 9 9 9 9 9 9 9 9 9 9 9 8 8 8 8 8 8 8 8 8 8 7 7 7 7 7 7
11 11 10 10 10 10 10 10 10 10 10 10 10 10 10 10 10 9 9 9 9 9 9 9 9 9 9 9 8 8 8 8 8 8 8 8 8 7 7 7 7 7 7 7
Wind_Speed
17 17 16 16 15 15 14 14 15 9 6 4 4 2 3 4 7 8 9 8 7 7 6 5 4 5 5 4 4 5 6 7 7 6 6 6 5 5 5 5 6 4 4 4
17 18 18 18 17 15 15 14 13 8 4 3 5 5 4 6 7 9 8 7 6 6 6 4 4 3 3 3 3 3 4 4 5 5 5 6 6 5 5 5 4 4 4 4
15 17 18 19 16 14 12 12 11 8 3 6 6 6 4 6 7 7 7 6 5 6 5 4 3 2 1 1 2 3 3 3 3 4 5 5 6 5 6 5 5 4 4 4
13 14 18 13 8 8 8 9 5 3 3 6 6 7 7 7 6 6 6 5 4 4 3 3 2 1 1 2 1 2 2 2 2 3 4 4 4 4 4 4 4 5 4 4
12 15 15 11 5 5 5 5 6 1 4 5 6 7 8 8 7 6 6 5 5 4 4 4 4 2 2 2 1 1 2 2 3 3 3 3 4 4 4 4 4 4 4 4
12 14 13 6 4 7 4 3 8 6 3 3 2 2 4 6 6 5 5 4 4 5 4 5 4 4 2 2 1 1 1 1 2 2 3 3 4 4 4 4 4 4 4 4
14 15 8 3 4 3 4 2 8 6 5 2 2 4 4 5 6 5 4 4 4 4 3 3 3 3 2 2 2 1 1 2 2 2 3 4 4 3 3 3 4 4 4 4
12 14 7 5 4 3 3 4 6 6 5 5 6 5 4 4 5 4 3 3 3 2 3 3 3 3 2 1 2 2 2 2 3 3 3 3 2 3 3 3 4 4 4 3
3 2 3 5 5 4 4 4 2 2 3 3 2 3 3 3 3 3 3 3 3 3 3 3 2 1 1 1 2 2 2 2 3 3 2 2 2 3 3 3 4 3 3 3
2 0 2 4 5 6 6 6 5 4 3 1 2 2 3 3 2 1 2 2 2 2 2 2 3 3 2 1 2 2 3 3 3 3 3 2 2 2 2 2 2 2 2 2
4 1 2 2 4 4 4 4 5 4 3 3 2 2 1 1 2 2 1 1 2 2 2 2 3 3 3 2 2 2 3 3 4 3 2 2 1 1 0 0 1 1 1 1
2 4 4 5 6 4 4 5 4 3 3 3 2 2 2 2 2 2 3 2 3 3 3 3 3 4 4 3 3 3 4 4 4 3 2 2 2 2 5 3 2 2 1 2
4 6 6 6 6 6 5 5 5 4 3 3 2 2 2 2 2 2 3 3 3 3 3 3 4 4 4 4 3 3 4 4 4 3 2 2 2 2 2 2 3 4 4 5
4 4 5 6 5 6 6 6 5 4 3 2 2 2 3 3 3 3 3 3 3 3 4 4 4 4 5 5 4 4 5 4 3 3 3 2 2 2 2 3 2 1 2 3
4 4 4 5 6 5 5 5 5 3 3 2 2 2 3 3 3 3 3 3 3 4 4 4 5 5 5 5 4 4 4 3 3 3 2 1 1 2 1 1 2 3 3 2
4 5 4 4 5 6 6 6 5 4 4 3 3 3 2 2 2 3 3 3 3 3 4 4 4 5 5 4 4 3 2 2 3 2 2 2 2 2 1 1 2 3 2 2
4 5 4 4 5 6 5 5 5 5 4 3 3 2 2 2 2 2 3 3 2 2 3 4 4 5 4 3 3 4 3 2 3 3 2 1 1 1 1 1 2 2 2 2
4 5 4 3 4 5 5 5 5 4 3 3 2 2 2 2 2 2 3 3 3 3 4 5 5 5 5 4 3 3 3 2 2 1 1 0 1 1 1 1 2 2 2 2
4 2 2 3 3 3 4 4 4 3 3 3 3 3 3 3 3 2 3 3 4 4 5 5 6 6 5 5 4 3 3 1 1 0 0 1 1 1 1 2 2 2 2 3
2 2 2 2 2 2 3 3 4 4 4 4 4 3 3 3 3 3 4 4 4 3 4 5 5 4 5 5 5 3 2 1 0 0 0 1 1 1 2 2 2 2 3 3
1 1 2 2 2 2 3 3 4 4 4 3 4 3 3 4 4 4 3 3 4 5 4 4 4 4 5 6 5 3 1 1 1 1 0 0 1 1 2 2 2 2 2 2
1 2 2 2 2 3 3 3 3 3 3 3 4 3 3 4 4 4 4 3 3 5 4 3 4 6 8 7 3 3 3 3 2 1 1 1 1 1 2 1 2 2 2 2
2 3 3 3 3 3 3 3 3 3 3 3 4 4 4 3 2 2 3 3 3 4 4 4 6 9 9 5 4 4 4 3 3 2 2 1 1 1 1 2 2 2 2 2
3 3 3 3 3 3 3 3 3 3 3 3 3 3 2 2 2 3 3 3 4 3 3 4 6 8 7 4 4 4 4 4 3 3 2 2 2 2 2 2 2 2 2 2
3 2 3 3 3 2 2 2 2 3 4 3 4 3 2 2 2 2 2 2 1 1 2 3 3 4 4 4 4 4 3 3 3 3 2 2 2 3 2 2 2 2 2 2
2 2 2 2 2 1 1 1 2 2 3 3 3 2 2 2 2 2 1 1 1 1 1 1 1 1 2 2 3 3 3 2 2 2 2 2 3 2 2 2 2 2 3 3
2 2 2 2 2 1 1 1 2 2 2 2 2 2 2 2 2 2 2 2 2 2 1 1 2 2 2 2 3 3 3 3 3 2 2 2 2 2 2 3 2 2 2 3
Wind_Direction
269 273 268 262 251 246 249 260 267 259 240 175 152 136 111 98 98 90 81 77 81 97 99 110 123 126 136 148 156 164 169 180 183 185 188 188 193 197 194 198 203 197 205 207
266 268 268 266 257 253 248 252 258 256 254 115 118 80 86 96 96 96 90 84 73 75 77 83 87 107 129 145 145 153 170 183 178 184 191 194 197 195 192 197 201 195 200 201
263 265 269 259 256 258 255 250 256 254 243 119 118 99 87 84 93 91 85 76 76 72 67 58 57 56 96 147 155 160 167 184 184 187 187 191 200 191 193 196 198 198 203 202
262 264 257 264 277 275 277 277 267 223 134 114 112 107 95 81 80 85 80 76 64 71 72 66 49 74 57 70 149 163 166 186 194 202 202 198 198 197 194 193 196 200 205 200
254 255 254 259 293 315 291 290 332 1 108 106 106 119 102 82 68 62 69 60 44 46 60 49 32 40 62 48 38 174 169 191 215 212 206 205 205 202 199 197 202 203 198 192
250 258 260 275 339 349 320 266 9 20 60 93 125 185 114 83 79 70 66 65 50 32 44 53 43 32 50 53 57 52 34 254 232 221 207 209 216 212 203 198 205 204 199 192
246 254 258 326 355 342 267 327 8 17 13 36 48 49 78 74 66 59 66 68 63 48 32 46 36 29 30 15 1 355 329 285 275 249 225 212 205 206 212 215 209 208 207 200
249 252 250 12 38 44 52 48 15 8 14 34 56 67 76 75 72 58 52 68 71 52 36 37 32 27 29 352 336 329 312 277 267 262 251 229 212 215 213 219 220 215 213 203
288 278 64 45 57 44 40 50 26 348 7 44 35 59 57 58 69 62 22 24 33 31 28 26 22 14 321 299 310 310 302 288 269 262 260 243 228 227 220 218 226 224 212 206
268 186 42 49 49 35 22 7 343 343 351 11 15 30 36 29 26 43 27 5 351 344 360 0 346 327 312 292 281 283 281 277 262 240 240 239 255 243 213 236 232 223 218 217
256 341 337 14 34 20 5 334 322 333 327 336 342 359 20 18 351 337 338 327 314 314 320 323 327 321 324 330 303 288 279 272 270 260 238 206 172 17 168 316 230 253 260 214
317 10 341 341 358 345 337 325 331 337 331 318 310 293 298 311 313 309 314 315 302 301 311 321 326 326 329 324 305 290 284 279 273 261 236 208 164 109 65 88 81 87 138 148
9 1 342 329 337 340 338 327 327 325 312 301 294 285 285 289 298 300 298 302 301 305 318 323 323 325 327 323 313 299 293 293 290 280 260 240 212 191 164 95 74 78 93 113
1 347 328 329 333 343 333 327 325 324 321 313 301 291 287 284 283 285 291 300 306 313 319 320 320 326 330 325 319 307 298 293 289 285 276 262 244 238 211 184 159 117 96 119
343 335 316 323 326 329 325 320 314 312 314 301 296 296 298 296 304 317 325 324 323 325 326 331 329 326 325 316 314 308 302 305 307 296 284 273 269 263 230 183 159 149 136 125
329 320 316 334 334 323 317 316 310 308 309 307 302 295 297 321 353 353 351 346 341 330 332 326 321 321 322 324 320 306 293 289 275 268 260 246 242 243 221 165 153 148 136 128
306 309 316 322 314 309 307 311 312 306 308 307 308 318 342 12 5 351 350 351 3 348 337 334 333 331 332 336 317 295 280 269 263 252 250 257 244 239 243 144 135 130 125 116
295 293 297 296 302 311 312 310 303 300 305 310 343 359 357 11 356 346 348 350 3 11 13 14 3 351 343 339 328 302 291 281 275 264 239 179 143 134 150 140 125 120 128 120
295 301 317 320 328 344 351 344 329 341 6 19 19 10 13 18 10 4 7 14 21 21 8 7 356 346 338 337 325 297 291 285 281 298 81 112 135 125 132 125 131 134 128 115
329 357 354 350 357 7 3 358 357 5 16 23 32 43 41 37 31 40 39 34 22 3 354 359 345 340 336 336 324 307 312 316 285 127 109 122 118 104 102 107 105 109 113 117
24 40 24 8 20 25 18 13 18 22 25 33 44 47 51 58 55 53 46 35 14 4 352 343 348 351 345 333 316 322 348 26 24 24 56 116 119 115 108 107 109 112 110 115
48 62 48 34 34 32 28 26 30 30 25 34 45 53 61 65 62 56 48 41 29 2 357 10 17 5 348 331 348 17 30 45 46 39 48 86 111 104 98 113 126 134 128 121
45 55 45 38 45 43 38 35 36 42 41 46 48 50 58 63 64 65 58 43 45 27 25 24 12 6 356 356 20 31 32 35 36 40 43 45 73 95 105 127 129 122 109 109
49 50 48 45 55 63 59 58 55 64 75 74 75 80 87 84 78 74 83 77 49 33 37 36 22 9 357 7 20 25 25 24 27 34 37 27 40 65 77 85 96 103 111 114
59 59 66 60 56 63 80 88 92 94 91 82 79 77 71 70 74 72 82 98 101 44 57 47 16 355 354 5 19 22 19 17 27 30 43 53 63 69 76 95 110 113 109 109
83 67 68 65 59 45 50 89 94 89 92 89 81 67 60 68 78 86 92 95 111 113 44 43 33 4 357 2 16 12 24 39 40 46 50 61 75 81 83 80 91 87 95 98
108 97 87 80 78 60 53 73 77 81 84 88 90 83 70 58 55 52 43 37 46 43 36 34 33 24 13 28 37 27 24 23 20 26 49 72 77 76 83 87 80 85 91 105
Height
1451 1445 1443 1443 1443 1442 1446 1449 1454 1451 1451 1452 1452 1454 1458 1460 1462 1465 1468 1472 1474 1477 1479 1482 1485 1488 1490 1492 1495 1496 1498 1499 1500 1501 1503 1505 1506 1507 1509 1509 1510 1511 1512 1512
1456 1447 1443 1444 1440 1439 1441 1442 1444 1447 1452 1449 1453 1458 1460 1462 1464 1467 1472 1475 1477 1477 1479 1482 1485 1488 1489 1491 1493 1495 1496 1497 1498 1499 1500 1501 1503 1504 1505 1506 1507 1508 1508 1508
1462 1450 1447 1452 1441 1439 1439 1438 1442 1449 1452 1451 1456 1460 1464 1466 1468 1470 1472 1475 1477 1479 1481 1483 1486 1487 1488 1490 1491 1492 1493 1495 1496 1497 1498 1498 1499 1500 1501 1502 1503 1503 1504 1505
1462 1460 1471 1448 1434 1435 1439 1439 1440 1443 1448 1453 1458 1462 1466 1469 1472 1473 1474 1476 1477 1478 1481 1483 1485 1486 1487 1487 1489 1490 1491 1492 1493 1494 1495 1496 1497 1497 1498 1498 1499 1500 1500 1501
1462 1464 1458 1445 1440 1442 1446 1447 1445 1446 1450 1454 1459 1463 1467 1470 1473 1475 1477 1479 1479 1479 1481 1482 1483 1484 1485 1486 1488 1489 1489 1490 1491 1492 1492 1493 1493 1494 1494 1495 1495 1496 1497 1498
1460 1467 1467 1453 1444 1445 1447 1456 1453 1452 1454 1456 1459 1463 1468 1470 1473 1474 1477 1479 1480 1480 1480 1481 1482 1483 1484 1484 1486 1487 1486 1487 1488 1488 1489 1489 1490 1491 1491 1492 1493 1494 1494 1494
1459 1461 1457 1451 1447 1449 1463 1468 1460 1459 1459 1460 1462 1465 1470 1471 1473 1475 1477 1478 1479 1480 1480 1480 1480 1481 1482 1483 1483 1484 1484 1484 1485 1485 1485 1486 1487 1488 1489 1489 1490 1490 1490 1491
1457 1462 1465 1455 1453 1459 1465 1464 1463 1463 1464 1464 1466 1468 1470 1472 1473 1476 1477 1478 1479 1479 1479 1479 1479 1479 1480 1481 1482 1481 1481 1481 1482 1482 1483 1483 1484 1485 1485 1486 1487 1487 1487 1487
1459 1461 1459 1457 1459 1463 1463 1464 1465 1466 1466 1468 1470 1470 1471 1473 1474 1476 1478 1478 1478 1478 1478 1478 1478 1478 1478 1479 1479 1479 1478 1478 1478 1479 1480 1480 1480 1481 1482 1483 1483 1483 1484 1484
1457 1457 1458 1460 1462 1464 1465 1467 1468 1467 1467 1469 1469 1470 1471 1473 1475 1476 1478 1478 1478 1478 1477 1476 1476 1476 1475 1476 1476 1476 1475 1475 1476 1475 1476 1477 1477 1478 1478 1479 1480 1480 1480 1481
1456 1459 1460 1462 1464 1465 1465 1467 1467 1468 1468 1469 1470 1470 1471 1473 1475 1475 1476 1476 1476 1476 1475 1474 1474 1474 1473 1473 1473 1473 1472 1472 1473 1473 1473 1473 1474 1475 1475 1476 1476 1477 1477 1477
1462 1463 1464 1465 1465 1465 1466 1467 1467 1468 1468 1469 1469 1470 1471 1472 1473 1474 1474 1474 1474 1474 1473 1471 1471 1470 1470 1470 1470 1470 1469 1469 1470 1470 1470 1471 1471 1471 1471 1472 1473 1474 1474 1475
1464 1465 1466 1466 1466 1466 1466 1467 1467 1467 1467 1467 1468 1469 1469 1470 1471 1472 1472 1472 1471 1471 1470 1469 1468 1468 1467 1467 1467 1466 1466 1466 1467 1467 1467 1468 1468 1468 1468 1469 1469 1470 1471 1471
1466 1466 1466 1466 1466 1466 1466 1466 1466 1466 1466 1466 1467 1467 1468 1468 1469 1469 1469 1469 1468 1468 1467 1466 1466 1465 1465 1464 1463 1463 1463 1463 1463 1464 1465 1465 1465 1466 1466 1466 1467 1467 1468 1468
1466 1467 1467 1466 1466 1466 1466 1466 1465 1465 1465 1465 1465 1465 1466 1466 1466 1466 1466 1465 1465 1465 1464 1464 1463 1462 1461 1461 1460 1460 1460 1460 1460 1461 1462 1462 1462 1463 1463 1463 1464 1464 1465 1465
1466 1466 1466 1465 1465 1465 1465 1465 1464 1464 1464 1464 1464 1464 1464 1464 1464 1463 1463 1462 1462 1462 1461 1461 1459 1459 1458 1458 1457 1457 1457 1457 1457 1458 1458 1458 1459 1459 1460 1460 1461 1461 1462 1463
1466 1466 1466 1465 1465 1465 1464 1464 1463 1463 1462 1462 1462 1462 1462 1462 1461 1461 1461 1460 1460 1459 1458 1458 1456 1456 1455 1454 1454 1454 1454 1455 1455 1455 1455 1456 1456 1457 1458 1458 1458 1459 1460 1461
1465 1466 1465 1465 1465 1464 1463 1463 1462 1462 1462 1461 1461 1461 1461 1460 1460 1460 1460 1459 1458 1457 1457 1456 1454 1454 1453 1453 1452 1452 1452 1452 1452 1452 1453 1453 1453 1454 1455 1456 1456 1457 1458 1458
1464 1464 1464 1464 1464 1464 1463 1463 1462 1461 1461 1460 1460 1460 1460 1460 1459 1459 1458 1458 1457 1456 1455 1454 1453 1452 1452 1451 1451 1450 1450 1450 1450 1450 1450 1450 1451 1452 1453 1454 1454 1455 1456 1457
1464 1464 1464 1464 1465 1464 1464 1463 1462 1462 1461 1460 1459 1459 1459 1459 1459 1458 1457 1457 1456 1455 1454 1453 1453 1452 1451 1450 1449 1449 1448 1448 1448 1448 1448 1449 1450 1450 1451 1452 1453 1453 1454 1455
1464 1464 1464 1464 1464 1464 1464 1463 1462 1462 1461 1460 1460 1460 1460 1459 1459 1458 1457 1457 1456 1455 1454 1453 1452 1451 1449 1448 1448 1447 1447 1446 1447 1447 1447 1448 1449 1449 1450 1450 1451 1452 1453 1454
1463 1463 1464 1464 1464 1464 1464 1463 1462 1462 1462 1461 1461 1461 1460 1460 1460 1459 1458 1458 1457 1455 1454 1453 1451 1450 1449 1448 1447 1446 1446 1445 1445 1446 1446 1447 1448 1448 1448 1449 1450 1450 1451 1452
1463 1463 1464 1464 1464 1464 1464 1463 1463 1462 1462 1462 1461 1461 1461 1461 1460 1460 1459 1459 1457 1456 1455 1453 1452 1450 1449 1448 1447 1446 1445 1445 1445 1446 1446 1446 1447 1447 1447 1448 1448 1449 1450 1450
1463 1464 1464 1464 1464 1464 1463 1463 1463 1463 1462 1462 1462 1462 1462 1462 1461 1461 1460 1459 1458 1457 1456 1454 1452 1451 1450 1448 1448 1447 1446 1446 1445 1445 1445 1446 1446 1446 1446 1447 1447 1448 1449 1449
1464 1464 1464 1464 1464 1464 1464 1463 1463 1463 1463 1463 1463 1463 1463 1462 1462 1461 1461 1460 1459 1458 1457 1455 1454 1452 1451 1450 1449 1448 1447 1446 1446 1445 1445 1445 1445 1445 1446 1446 1447 1447 1448 1448
1464 1464 1464 1464 1464 1464 1464 1464 1464 1464 1464 1464 1464 1464 1464 1463 1463 1462 1462 1461 1460 1459 1458 1457 1456 1454 1453 1452 1451 1450 1448 1448 1447 1446 1445 1445 1445 1445 1445 1445 1446 1446 1447 1447
1465 1465 1465 1465 1465 1465 1465 1465 1465 1465 1465 1465 1465 1465 1465 1465 1464 1464 1463 1462 1462 1461 1460 1459 1458 1456 1455 1454 1453 1451 1450 1449 1448 1448 1447 1446 1446 1446 1446 1446 1446 1446 1446 1447